Regional Weather Roundup
Issued by NWS

Home | Current Version | Previous Version | Graphics & Text | Print | Product List | Glossary On
Versions: 1 2 3 4 5 6 7 8 9 10 11 12 13 14 15 16 17 18 19 20 21 22 23 24 25 26 27 28 29 30 31 32 33 34 35 36 37 38 39 40 41 42 43 44 45 46 47 48 49 50
000
ASUS43 KLOT 261203
RWRIL

ILLINOIS REGIONAL WEATHER ROUNDUP
NATIONAL WEATHER SERVICE CHICAGO/ROMEOVILLE IL
700 AM CDT WED APR 26 2017

NOTE: "FAIR" INDICATES FEW OR NO CLOUDS BELOW 12,000 FEET WITH NO
SIGNIFICANT WEATHER AND/OR OBSTRUCTIONS TO VISIBILITY.

* THESE STATIONS ARE NOT UNDER NWS QUALITY CONTROL. THEY ALSO MAY NOT
  REPORT WEATHER SUCH AS PRECIPITATION OR FOG.

ILZ001-002-007-009-015-016-024-261300-
NORTHWEST ILLINOIS

CITY           SKY/WX    TMP DP  RH WIND       PRES   REMARKS
MOLINE         RAIN      61  56  83 S8        29.42R
6HR MIN TEMP:  61; 6HR MAX TEMP:  72; 6HR PCP:  0.03;

STERLING*      CLOUDY    64  53  67 VRB6      29.43R
SAVANNA*       DRIZZLE   61  54  76 S3        29.40R
$$

ILZ003-004-008-010-011-017-018-261300-
NORTH CENTRAL ILLINOIS

CITY           SKY/WX    TMP DP  RH WIND       PRES   REMARKS
ROCKFORD       CLOUDY    64  54  69 S14       29.43R
6HR MIN TEMP:  63; 6HR MAX TEMP:  68;

FREEPORT*      CLOUDY    62  52  69 S9        29.42R
ROCHELLE*      PTSUNNY   62  55  76 SE16      29.43S
DE KALB*       CLOUDY    62  56  81 SE15G21   29.46R
PERU*          CLOUDY    63  53  70 S17       29.45R
$$

ILZ005-006-012>014-019>023-261300-
NORTHEAST ILLINOIS

CITY           SKY/WX    TMP DP  RH WIND       PRES   REMARKS
CHICAGO-OHARE  PTSUNNY   65  55  70 S15G22    29.47R
6HR MIN TEMP:  64; 6HR MAX TEMP:  68;

CHICAGO-MIDWAY PTSUNNY   66  56  70 S15G21    29.49R
6HR MIN TEMP:  66; 6HR MAX TEMP:  70;

AURORA         MOSUNNY   65  56  72 SE15      29.47R
6HR MIN TEMP:  63; 6HR MAX TEMP:  68;

LANSING*       CLOUDY    64  57  80 S14       29.51R
JOLIET*        MOSUNNY   65  57  75 S13       29.50R
WAUKEGAN       CLOUDY    57  53  86 SE7       29.46S
6HR MIN TEMP:  55; 6HR MAX TEMP:  58;

DUPAGE AIRPORT SUNNY     64  57  78 S13       29.47R
6HR MIN TEMP:  63; 6HR MAX TEMP:  68;

KANKAKEE*      CLOUDY    65  55  70 S15G23    29.53R
WHEELING       SUNNY     64  57  78 S15G23    29.48S
6HR MIN TEMP:  63; 6HR MAX TEMP:  68;

MORRIS*        CLOUDY    64  55  72 S16G23    29.47R
ROMEOVILLE*    MOSUNNY   63  58  85 S14       29.50R
NORTHERLY ISL    N/A     65  54  67 S12         N/A
$$

LMZ740>746-261300-
SOUTHERN LAKE MICHIGAN

STATION/POSITION SKY/WX   TEMP    WIND        PRES    VSBY  WAVE
                          AIR SEA DIR/SP/G                  HT/PER
                          (F)     (DEG/KT/KT) (MB)    (MI)  (FT/S)
SOUTHERN BUOY              47 41  120/ 12/ 14  999.2          1/ 3
HARRISON CRIB              60     170/ 12/ 14   N/A
BURNHAM HARBOR             65     160/ 16       N/A
CALUMET HARBOR             65     150/  8/ 15  998.3R
BURNS HARBOR               65     160/  9/ 16 1000.0R
MICHIGAN CITY              64     150/ 11/ 15   N/A
ST. JOSEPH                 59 49  170/ 12/ 14  999.9S         2/ 2
$$

ILZ025>027-034>036-040-047-049-050-058-095>099-261300-
WEST-CENTRAL ILLINOIS

CITY           SKY/WX    TMP DP  RH WIND       PRES   REMARKS
QUINCY         CLOUDY    60  60 100 SW12      29.42S
GALESBURG*     RAIN      59  58  95 CALM      29.40F
MACOMB*        CLOUDY    60  58  96 E5        29.40F
JACKSONVILLE*  CLOUDY    59  57  95 NE7       29.35F
PITTSFIELD*    CLOUDY    59  59  99 CALM      29.40F
$$

ILZ028>032-037-038-041>044-048-051>054-059>061-261300-
CENTRAL ILLINOIS

CITY           SKY/WX    TMP DP  RH WIND       PRES   REMARKS
PONTIAC        LGT RAIN  65  58  76 S20       29.48S
DECATUR        CLOUDY    66  57  72 S16G25    29.50S
PEORIA         LGT RAIN  59  58  96 VRB5      29.41F
6HR MIN TEMP:  59; 6HR MAX TEMP:  68; 6HR PCP:  0.25;

LACON*         CLOUDY    60  57  89 SW20G28   29.46R
LINCOLN*       CLOUDY    65  58  77 S6        29.47S
SPRINGFIELD    CLOUDY    66  56  70 W9        29.40F
6HR MIN TEMP:  66; 6HR MAX TEMP:  69;

TAYLORVILLE    CLOUDY    65  55  68 S9G17     29.45F
6HR MIN TEMP:  64; 6HR MAX TEMP:  66;

$$

ILZ033-039-045-046-055>057-062-063-261300-
EAST-CENTRAL ILLINOIS

CITY           SKY/WX    TMP DP  RH WIND       PRES   REMARKS
CHAMPAIGN      CLOUDY    66  54  65 S21       29.52R
RANTOUL*       CLOUDY    67  57  71 S15G29    29.52S
MATTOON        CLOUDY    64  57  78 S12G21    29.54S
PARIS*         CLOUDY    64  57  78 S15       29.58S
$$

ILZ079-100>102-261300-
SOUTHWEST ILLINOIS

CITY           SKY/WX    TMP DP  RH WIND       PRES   REMARKS
ALTON          CLOUDY    61  55  82 SE10      29.46F
BELLEVILLE     MOCLDY    63  56  78 SE3       29.48F
CAHOKIA*       MOCLDY    64  54  69 S8        29.47F
SPARTA*        MOCLDY    64  56  73 S7        29.55S
$$

ILZ064>066-069>071-074>076-080>082-084>086-088>090-092>094-261300-
SOUTH-CENTRAL ILLINOIS

CITY           SKY/WX    TMP DP  RH WIND       PRES   REMARKS
CARBONDALE     MOCLDY    66  59  78 S10       29.58F
6HR MIN TEMP:  63; 6HR MAX TEMP:  69;

CAIRO*         CLOUDY    64  57  78 S6        29.63R
EFFINGHAM*     CLOUDY    65  57  74 S9        29.58R
MARION         PTCLDY    68  59  73 SW8       29.61S
MT. VERNON     CLOUDY    64  57  78 S6        29.57F
CENTRALIA*     MOCLDY    66  59  76 S10       29.53F
SALEM*         PTCLDY    67  57  68 S7        29.55F
METROPOLIS*    CLOUDY    66  58  74 S3        29.65R
$$

ILZ067-068-072-073-078-083-087-091-261300-
SOUTHEAST ILLINOIS

CITY           SKY/WX    TMP DP  RH WIND       PRES   REMARKS
LAWRENCEVILLE  PTSUNNY   65  57  75 S16       29.60R
FLORA*         CLOUDY    65  57  75 S14       29.59R
FAIRFIELD*     PTSUNNY   63  57  81 SE5       29.60R
HARRISBURG*    PTCLDY    65  57  77 SW10      29.62R
ROBINSON*      CLOUDY    64  56  76 S12       29.59F
CARMI*         CLOUDY    63  57  81 S10       29.62R
$$

ABBREVIATIONS USED IN REMARKS
   TC - TEMPERATURE IN CELSIUS
  WCI - WIND CHILL INDEX
   HX - HEAT INDEX
  VSB - VISIBILITY
$$





USA.gov is the U.S. government's official web portal to all federal, state and local government web resources and services.